Regional Weather Roundup
Issued by NWS Sioux Falls, SD

Home | Current Version | Previous Version | Graphics & Text | Print | Product List | Glossary Off
Versions: 1 2 3 4 5 6 7 8 9 10 11 12 13 14 15 16 17 18 19 20 21 22 23 24 25 26 27 28 29 30 31 32 33 34 35 36 37 38 39 40 41 42 43 44 45 46 47 48 49 50

306
ASUS43 KFSD 290202
RWRFSD

WEATHER ROUNDUP FOR SE SOUTH DAKOTA/SW MINNESOTA/NW IOWA
NATIONAL WEATHER SERVICE SIOUX FALLS SD
900 PM CDT SUN AUG 28 2016

NOTE: "FAIR" INDICATES FEW OR NO CLOUDS BELOW 12,000 FEET WITH NO
SIGNIFICANT WEATHER AND OR OBSTRUCTIONS TO VISIBILITY.


SDZ038>040-050-052>070-290300-
SOUTHEAST SOUTH DAKOTA

CITY           SKY/WX    TMP DP  RH WIND       PRES   REMARKS
BROOKINGS        N/A    N/A N/A N/A MISG        N/A
CHAMBERLAIN    PTCLDY    81  65  58 SE9       29.98R
HURON          CLEAR     82  66  58 S13G22    29.97R
MADISON        FAIR      75  75 100 S10       30.07R
MITCHELL       PTCLDY    82  68  62 S12       30.01R
SIOUX FALLS    PTCLDY    82  70  66 S14       30.07R
WINNER         FAIR      79  64  60 S12       29.99R
YANKTON        MOCLDY    81  70  69 SE9       30.05R
$$

MNZ071-072-080-081-089-090-097-098-290300-
SOUTHWEST MINNESOTA

CITY           SKY/WX    TMP DP  RH WIND       PRES   REMARKS
FAIRMONT       PTCLDY    73  71  93 SE7       30.11
JACKSON          N/A     75  68  78 SE6       30.11S
LUVERNE        CLEAR     75  70  83 S7        30.09R
MARSHALL       CLEAR     78  73  84 S10       30.06R
MONTEVIDEO     CLEAR     79  72  78 S8        30.07R
REDWOOD FALLS  CLEAR     77  69  76 S12       30.07R
TRACY          CLEAR     77  73  85 S7        30.08R
WINDOM         PTCLDY    75  68  78 SE7       30.10S
WORTHINGTON    PTCLDY    76  72  87 S7        30.11R
$$

IAZ001>003-012>014-020>022-031-032-NEZ013-014-SDZ071-290300-
NORTHWEST IOWA

CITY           SKY/WX    TMP DP  RH WIND       PRES   REMARKS
CHEROKEE       CLOUDY    71  66  84 S6        30.11R
DENISON        CLOUDY    70  66  88 E3        30.09R
ESTHERVILLE    PTCLDY    71  70  96 S7        30.11R
LE MARS        PTCLDY    73  66  78 S7        30.09S
ORANGE CITY    PTCLDY    72  66  83 S9        30.10S
SHELDON        MOCLDY    75  70  83 S10G17    30.09R
SIOUX CITY     CLOUDY    76  63  64 S10       30.08S
SPENCER        CLOUDY    75  67  76 S7        30.12R
STORM LAKE     CLOUDY    70  66  88 S7        30.13R
$$

ABBREVIATIONS USED IN REMARKS
   TC - TEMPERATURE IN CELSIUS
  WCI - WIND CHILL INDEX
   HX - HEAT INDEX
  VSB - VISIBILITY





USA.gov is the U.S. government's official web portal to all federal, state and local government web resources and services.